Location: Chateh
(58.6667°N, 118.6000°W)
Time: 10:59:49
(UTC+00:00)

PCSat - Pass Details

Date: 13 December 2023
Orbit: 784 x 791 km, 67.0° (Epoch: 01 March)

Event Time Altitude Azimuth Distance (km) Brightness Sun altitude
Exits shadow 15:08:02 13° 305° (NW) 2,173 11.2 -10.0°
Maximum altitude 15:12:26 35° 8° (N) 1,257 10.5 -9.5°
Drops below altitude 10° 15:17:24 10° 74° (ENE) 2,364 12.7 -8.9°
Sets 15:20:02 0° 83° (E) 3,294 13.7 -8.6°
